[[{"header":{"parameterUnit":"m.s-1","parameterCategory":1,"la1":30.2991,"la2":30.254,"lo1":-89.0895,"lo2":-89.0444,"dy":0.0017,"dx":0.0017,"nx":28,"ny":28,"refTime":"2024-10-04T03:00:00:Z","depth":0,"parameterNumber":2,"parameterNumberName":"U-component_of_WINDS"},"data":[0,0,0,0,0,0,0,0,0,0,0,0,0,0,0,0,0,0,0,0,0,0,0,0,0,0,0,0,0,0,0,0,0,0,0,0,0,0,0,0,0,0,0,0,0,0,0,0,0,0,0,0,0,0,0,0,0,0,-4.0606,-4.0606,0,-4.0607,-4.0607,-4.0607,-4.0489,-4.0486,-4.0483,-4.048,-4.0486,-4.0489,-4.0492,0,0,0,0,0,0,0,0,0,0,0,0,0,-4.0506,-4.0509,-4.0606,-4.0606,-4.0606,-4.0607,-4.0607,-4.0607,-4.049,-4.0486,-4.0482,-4.0479,-4.0485,-4.0488,-4.0492,0,0,0,0,0,0,0,0,0,0,0,0,0,-4.0533,-4.0509,-4.0606,-4.0547,-4.0542,-4.0607,-4.0607,-4.0607,-4.0491,-4.0486,-4.0481,-4.0477,-4.0483,-4.0488,-4.0492,-4.0614,0,0,-4.0506,-4.0508,0,0,0,0,0,0,0,0,-4.0531,-4.0537,-4.0556,-4.0551,-4.0546,-4.0543,-4.0574,-4.061,-4.0492,-4.051,-4.048,-4.0475,-4.0509,-4.0511,-4.0522,-4.0615,-4.0615,-4.0507,-4.051,-4.0511,-4.0513,0,0,0,0,0,0,0,-4.053,-4.0536,-4.0606,-4.0556,-4.055,-4.0522,-4.0521,-4.058,-4.0536,-4.0508,-4.05,-4.0501,-4.0505,-4.0518,-4.0521,-4.0615,-4.0507,-4.0511,-4.0514,-4.0515,-4.0811,-4.0816,0,0,0,0,0,0,-4.0535,-4.0535,-4.0606,-4.0606,-4.0527,-4.0528,-4.0526,-4.0549,-4.0535,-4.0528,-4.0505,-4.0496,-4.0512,-4.0516,-4.0521,-4.0665,-4.0511,-4.0516,-4.0518,-4.0806,-4.0812,-4.0818,0,0,0,0,0,0,-4.0534,-4.0543,-4.0606,-4.0568,-4.0574,-4.0535,-4.0561,-4.0551,-4.0563,-4.0533,-4.0525,-4.0526,-4.0508,-4.0514,-4.0592,-4.0663,-4.0518,-4.0522,-4.08,-4.0808,-4.0815,-4.0953,0,0,0,0,0,0,-4.0531,-4.0543,-4.0588,-4.057,-4.0577,-4.0677,-4.0565,-4.0555,-4.0571,-4.0559,-4.055,-4.0544,-4.0505,-4.0586,-4.0597,-4.0667,-4.0526,-4.0794,-4.0804,-4.0813,-4.0942,-4.0964,-4.0984,0,0,0,0,0,-4.0528,-4.0627,-4.059,-4.06,-4.0632,-4.0681,-4.0685,-4.0637,-4.0577,-4.0623,-4.0604,-4.0544,-4.0653,-4.0595,-4.0606,-4.0679,-4.0789,-4.0801,-4.0812,-4.0933,-4.096,-4.0983,0,0,0,0,0,0,-4.0654,-4.0623,-4.0583,-4.0678,-4.0683,-4.0661,-4.0717,-4.0667,-4.069,-4.0678,-4.0619,-4.0618,-4.0707,-4.07,-4.0636,-4.0797,-4.0711,-4.0725,-4.0799,-4.0824,-4.0845,-4.0845,-4.0529,0,0,0,0,0,-4.0693,-4.0734,-4.0705,-4.0793,-4.0797,-4.0757,-4.0777,-4.074,-4.0743,-4.0745,-4.073,-4.0737,-4.0773,-4.0798,-4.0829,-4.094,-4.0938,-4.0995,-4.1016,-4.1033,-4.1047,-4.1108,-4.1134,-4.0856,-4.0856,-4.0855,0,0,-4.0774,-4.0762,-4.0792,-4.0818,-4.0817,-4.0863,-4.0759,-4.0812,-4.0846,-4.0753,-4.0826,-4.0816,-4.082,-4.0916,-4.0957,-4.0913,-4.1123,-4.1048,-4.1062,-4.1066,-4.1122,-4.1149,-4.1172,-4.0863,-4.0862,-4.0861,0,0,-4.0945,-4.0939,-4.1012,-4.1014,-4.1014,-4.0987,-4.1005,-4.0991,-4.0981,-4.1053,-4.0984,-4.1025,-4.1087,-4.1093,-4.1105,-4.128,-4.1228,-4.1292,-4.1402,-4.1462,-4.1484,-4.1503,-4.1568,-4.1592,-4.1305,-4.1306,-4.1306,0,-4.1046,-4.1111,-4.1057,-4.1114,-4.1129,-4.1045,-4.112,-4.1125,-4.1136,-4.1149,-4.1099,-4.1177,-4.1173,-4.127,-4.1314,-4.1325,-4.1345,-4.1293,-4.1484,-4.1503,-4.152,-4.1582,-4.1606,-4.1314,-4.1313,-4.1312,-4.1311,0,-4.1237,-4.1283,-4.1342,-4.1354,-4.1375,-4.1441,-4.1399,-4.1427,-4.1389,-4.1368,-4.1444,-4.1437,-4.1466,-4.1486,-4.1449,-4.1579,-4.1552,-4.1494,-4.1406,-4.1556,-4.1613,-4.1636,-4.1325,-4.1322,-4.132,-4.1318,0,0,-4.1488,-4.1469,-4.1492,-4.1498,-4.1492,-4.1528,-4.1591,-4.1619,-4.1646,-4.1656,-4.171,-4.1765,-4.1712,-4.1725,-4.1688,-4.1741,-4.1884,-4.1677,-4.1676,-4.1718,-4.203,-4.2075,-4.2103,-4.1848,-4.1852,-4.1855,-4.203,0,-4.1655,-4.1761,-4.1715,-4.1826,-4.187,-4.1792,-4.1847,-4.1852,-4.1834,-4.187,-4.185,-4.1892,-4.1817,-4.1825,-4.1873,-4.1856,-4.1946,-4.1843,-4.19,-4.1902,-4.1903,-4.2132,-4.2179,-4.2344,-4.2052,-4.2055,-4.2058,0,-4.1865,-4.1884,-4.2,-4.1989,-4.2005,-4.2056,-4.2079,-4.2113,-4.2117,-4.2101,-4.2116,-4.2068,-4.2132,-4.2043,-4.2131,-4.2062,-4.2083,-4.2078,-4.2083,-4.2088,-4.1991,-4.2146,-4.2395,-4.2421,-4.2092,-4.2089,-4.2087,0,-4.204,-4.2094,-4.2171,-4.2178,-4.2166,-4.2204,-4.2201,-4.22,-4.222,-4.2241,-4.2254,-4.2282,-4.2298,-4.2322,-4.2284,-4.2222,-4.2379,-4.2286,-4.2369,-4.2371,-4.2407,-4.2406,-4.2666,-4.2417,-4.2417,-4.2416,-4.2416,0,-4.2233,-4.2308,-4.225,-4.2297,-4.2379,-4.2326,-4.2409,-4.2398,-4.2398,-4.2444,-4.2378,-4.2423,-4.2368,-4.2409,-4.2379,-4.2458,-4.2465,-4.2456,-4.2448,-4.2463,-4.2465,-4.2477,-4.2465,-4.2423,-4.2421,-4.242,-4.2419,0,-4.2442,-4.2406,-4.2485,-4.2468,-4.2465,-4.2527,-4.2512,-4.2557,-4.2535,-4.2594,-4.2604,-4.2571,-4.2615,-4.2578,-4.2621,-4.2602,-4.2707,-4.2681,-4.2706,-4.27,-4.2786,-4.2779,-4.3065,-4.3101,-4.2827,-4.283,-4.2832,0,-4.2569,-4.2624,-4.2613,-4.2638,-4.2639,-4.2681,-4.2701,-4.2652,-4.2676,-4.2686,-4.273,-4.2768,-4.2796,-4.2871,-4.2851,-4.2884,-4.286,-4.2958,-4.2865,-4.288,-4.2865,-4.2863,-4.2869,-4.2978,-4.2981,-4.2984,-4.2986,0,-4.2799,-4.2778,-4.2809,-4.2836,-4.2862,-4.288,-4.2894,-4.2919,-4.2868,-4.2899,-4.2943,-4.2965,-4.3009,-4.3049,-4.3076,-4.3074,-4.3024,-4.3015,-4.3037,-4.3054,-4.3067,-4.3064,-4.276,-4.3009,-4.3007,-4.3005,-4.3004,-4.3003,-4.2972,-4.3018,-4.3018,-4.3056,-4.3061,-4.3075,-4.3117,-4.31,-4.3135,-4.3167,-4.3135,-4.3189,-4.3194,-4.3224,-4.323,-4.3273,-4.3232,-4.3263,-4.3271,-4.328,-4.3293,-4.3059,-4.3277,-4.3276,-4.3276,-4.3275,-4.3274,0,-4.32,-4.3196,-4.3231,-4.3252,-4.3283,-4.323,-4.3243,-4.3273,-4.332,-4.3328,-4.3357,-4.3409,-4.3448,-4.3432,-4.3466,-4.3504,-4.3482,-4.3515,-4.3513,-4.3514,-4.3326,-4.3305,-4.3533,-4.3533,-4.3533,-4.3533,-4.3532,-4.3532,-4.3322,-4.3399,-4.3379,-4.3459,-4.3455,-4.3506,-4.3518,-4.3532,-4.3538,-4.3599,-4.3631,-4.3619,-4.3618,-4.3653,-4.3687,-4.3681,-4.3698,-4.3741,-4.3727,-4.3552,-4.3527,-4.3503,-4.3483,-4.3744,-4.3745,-4.3912,-4.3914,-4.3915]},{"header":{"parameterUnit":"m.s-1","parameterCategory":1,"la1":30.2991,"la2":30.254,"lo1":-89.0895,"lo2":-89.0444,"dy":0.0017,"dx":0.0017,"nx":28,"ny":28,"refTime":"2024-10-04T03:00:00:Z","depth":0,"parameterNumber":3,"parameterNumberName":"V-component_of_WINDS"},"data":[0,0,0,0,0,0,0,0,0,0,0,0,0,0,0,0,0,0,0,0,0,0,0,0,0,0,0,0,0,0,0,0,0,0,0,0,0,0,0,0,0,0,0,0,0,0,0,0,0,0,0,0,0,0,0,0,0,0,-0.0645,-0.0645,0,-0.0657,-0.0657,-0.0657,-0.0643,-0.0643,-0.0642,-0.0642,-0.0658,-0.0659,-0.066,0,0,0,0,0,0,0,0,0,0,0,0,0,-0.0615,-0.0615,-0.0645,-0.0645,-0.0646,-0.0657,-0.0657,-0.0657,-0.0643,-0.0643,-0.0642,-0.0642,-0.0658,-0.0659,-0.066,0,0,0,0,0,0,0,0,0,0,0,0,0,-0.0628,-0.0616,-0.0645,-0.064,-0.064,-0.0657,-0.0657,-0.0657,-0.0644,-0.0643,-0.0642,-0.0641,-0.0657,-0.0659,-0.066,-0.0685,0,0,-0.0664,-0.0665,0,0,0,0,0,0,0,0,-0.0627,-0.0629,-0.0641,-0.064,-0.064,-0.0648,-0.0652,-0.0667,-0.0644,-0.0642,-0.0642,-0.0641,-0.0656,-0.0657,-0.0661,-0.0685,-0.0686,-0.0664,-0.0665,-0.0666,-0.0666,0,0,0,0,0,0,0,-0.0626,-0.0628,-0.065,-0.0641,-0.064,-0.0638,-0.0639,-0.0655,-0.0653,-0.0642,-0.0641,-0.0643,-0.0655,-0.066,-0.0661,-0.0686,-0.0664,-0.0666,-0.0667,-0.0667,-0.0733,-0.0734,0,0,0,0,0,0,-0.0625,-0.0627,-0.065,-0.065,-0.0631,-0.0639,-0.064,-0.0646,-0.0653,-0.0653,-0.0643,-0.0642,-0.0658,-0.066,-0.0662,-0.0693,-0.0666,-0.0667,-0.0668,-0.0732,-0.0733,-0.0734,0,0,0,0,0,0,-0.0624,-0.0627,-0.0649,-0.0639,-0.0641,-0.0641,-0.0647,-0.0647,-0.0651,-0.0654,-0.0654,-0.0648,-0.0657,-0.066,-0.0679,-0.0693,-0.0668,-0.0669,-0.0731,-0.0732,-0.0734,-0.0753,0,0,0,0,0,0,-0.0624,-0.0627,-0.0636,-0.0639,-0.0642,-0.0665,-0.0648,-0.0648,-0.0653,-0.0652,-0.0658,-0.0659,-0.0657,-0.0677,-0.0681,-0.0694,-0.067,-0.073,-0.0732,-0.0733,-0.0751,-0.0755,-0.0758,0,0,0,0,0,-0.0623,-0.0641,-0.0636,-0.0639,-0.0652,-0.0666,-0.0668,-0.0664,-0.0654,-0.0664,-0.0665,-0.0659,-0.069,-0.0679,-0.0683,-0.0697,-0.0729,-0.0731,-0.0733,-0.075,-0.0754,-0.0758,0,0,0,0,0,0,-0.0641,-0.0642,-0.0636,-0.0656,-0.0661,-0.0663,-0.0675,-0.0669,-0.0678,-0.0676,-0.0672,-0.0674,-0.0695,-0.0698,-0.0685,-0.0722,-0.0708,-0.0711,-0.072,-0.0724,-0.0727,-0.0727,-0.0671,0,0,0,0,0,-0.0647,-0.0657,-0.0657,-0.0675,-0.0677,-0.0676,-0.0682,-0.0678,-0.0684,-0.0686,-0.0689,-0.0696,-0.0708,-0.0716,-0.0726,-0.0751,-0.0753,-0.0763,-0.0766,-0.0769,-0.0772,-0.0787,-0.0792,-0.0741,-0.0741,-0.0741,0,0,-0.066,-0.0662,-0.0668,-0.0678,-0.0682,-0.0694,-0.0678,-0.0691,-0.07,-0.0689,-0.0707,-0.0709,-0.0717,-0.0739,-0.0749,-0.0742,-0.0786,-0.0771,-0.0774,-0.0776,-0.079,-0.0794,-0.0799,-0.0742,-0.0742,-0.0742,0,0,-0.0691,-0.0692,-0.0707,-0.0711,-0.0716,-0.0714,-0.0718,-0.0722,-0.0723,-0.074,-0.0733,-0.0744,-0.0764,-0.077,-0.0775,-0.0808,-0.0803,-0.0811,-0.083,-0.0844,-0.0849,-0.0852,-0.0866,-0.087,-0.0814,-0.0814,-0.0814,0,-0.0707,-0.0723,-0.0716,-0.073,-0.0735,-0.0724,-0.074,-0.0744,-0.0753,-0.0758,-0.075,-0.0775,-0.0779,-0.0803,-0.0811,-0.0815,-0.0821,-0.0812,-0.0848,-0.0852,-0.0855,-0.0868,-0.0873,-0.0815,-0.0815,-0.0815,-0.0815,0,-0.0744,-0.0755,-0.0767,-0.0775,-0.0781,-0.0796,-0.0793,-0.0801,-0.0796,-0.0796,-0.0816,-0.082,-0.0832,-0.0837,-0.0833,-0.0861,-0.0857,-0.0848,-0.0835,-0.0861,-0.0873,-0.0878,-0.0817,-0.0817,-0.0816,-0.0816,0,0,-0.0788,-0.0791,-0.0796,-0.0799,-0.0803,-0.0813,-0.0828,-0.0838,-0.0845,-0.0852,-0.0865,-0.0882,-0.0874,-0.0881,-0.0877,-0.089,-0.0918,-0.088,-0.088,-0.0889,-0.0951,-0.0959,-0.0964,-0.0913,-0.0914,-0.0915,-0.0951,0,-0.082,-0.0844,-0.0839,-0.0863,-0.0875,-0.0864,-0.0877,-0.0882,-0.0882,-0.0893,-0.0894,-0.0906,-0.0894,-0.0898,-0.0909,-0.0912,-0.093,-0.0909,-0.0928,-0.0929,-0.0929,-0.097,-0.0979,-0.1013,-0.0955,-0.0956,-0.0956,0,-0.0861,-0.0867,-0.0893,-0.0896,-0.0901,-0.0912,-0.0922,-0.0931,-0.0937,-0.0937,-0.0944,-0.0938,-0.0955,-0.0939,-0.0963,-0.0948,-0.0956,-0.0958,-0.0959,-0.0963,-0.0946,-0.0977,-0.1023,-0.1029,-0.0963,-0.0963,-0.0962,0,-0.0893,-0.0908,-0.0926,-0.0929,-0.0932,-0.0941,-0.0943,-0.0948,-0.0955,-0.0963,-0.0968,-0.0979,-0.0985,-0.0994,-0.0993,-0.0981,-0.1018,-0.1001,-0.102,-0.102,-0.103,-0.103,-0.108,-0.1031,-0.1031,-0.1031,-0.103,0,-0.0931,-0.0947,-0.094,-0.0952,-0.097,-0.0964,-0.0983,-0.0984,-0.0988,-0.1,-0.0991,-0.1003,-0.0999,-0.1012,-0.101,-0.1031,-0.1034,-0.1036,-0.1036,-0.1038,-0.1038,-0.1044,-0.1043,-0.1032,-0.1032,-0.1031,-0.1031,0,-0.0971,-0.0966,-0.0985,-0.0986,-0.0987,-0.1001,-0.1003,-0.1014,-0.1013,-0.1029,-0.1032,-0.1031,-0.1045,-0.1044,-0.106,-0.1059,-0.1086,-0.1082,-0.1084,-0.1084,-0.1103,-0.1102,-0.1161,-0.1169,-0.1112,-0.1113,-0.1113,0,-0.0996,-0.1009,-0.1011,-0.1017,-0.102,-0.1031,-0.1038,-0.1031,-0.1039,-0.1046,-0.1057,-0.107,-0.108,-0.1104,-0.1106,-0.1118,-0.1116,-0.1135,-0.1118,-0.112,-0.1119,-0.1119,-0.1121,-0.114,-0.1141,-0.1141,-0.1141,0,-0.1043,-0.104,-0.1049,-0.1057,-0.1065,-0.1071,-0.1077,-0.1084,-0.1079,-0.1088,-0.1101,-0.1109,-0.1125,-0.1138,-0.115,-0.1154,-0.1148,-0.1146,-0.1152,-0.1156,-0.1157,-0.1159,-0.1096,-0.1146,-0.1145,-0.1145,-0.1145,-0.1145,-0.1078,-0.1089,-0.1092,-0.1103,-0.1106,-0.1112,-0.1122,-0.1122,-0.1133,-0.1144,-0.114,-0.1156,-0.1162,-0.1177,-0.1182,-0.1196,-0.1189,-0.1196,-0.1198,-0.1201,-0.1204,-0.1153,-0.1198,-0.1198,-0.1197,-0.1197,-0.1197,0,-0.1126,-0.1127,-0.1136,-0.1144,-0.1153,-0.1144,-0.115,-0.1158,-0.1172,-0.1177,-0.1187,-0.1203,-0.1217,-0.1219,-0.1232,-0.1243,-0.124,-0.1247,-0.1247,-0.1249,-0.1208,-0.1203,-0.1248,-0.1248,-0.1248,-0.1248,-0.1248,-0.1248,-0.1152,-0.117,-0.1168,-0.1188,-0.119,-0.1204,-0.1209,-0.1215,-0.1219,-0.1237,-0.1247,-0.1248,-0.1253,-0.1266,-0.1278,-0.1279,-0.1285,-0.1293,-0.1293,-0.1256,-0.1251,-0.1246,-0.1242,-0.1294,-0.1294,-0.1332,-0.1333,-0.1333]}]]